This demonstration page uses our WeatherBlox Daily Observations layout. Learn more.

Left ArrowRight Arrow

Hourly Observations for November 26, 2022

Temp ( °F °C ) Dew Point ( °F °C ) Humidity (%) Winds ( mph kmh ) Pressure ( in mb ) Visibility ( mi km ) Precip ( " mm )
12:37 am 00:37 Clear with Mist and Fog 48 8.9 47 8.3 96 96 Calm 30.14 1021 1 2 0.00 0.00
12:44 am 00:44 Clear 48 8.9 47 8.3 96 96 Calm 30.14 1021 10 16 0.00 0.00
12:53 am 00:53 Mostly Clear 47 8.3 47 8.3 100 100 Calm 30.11 1020 10 16 0.00 0.00
1:53 am 01:53 Clear 46 7.8 44 6.7 93 93 Calm 30.12 1020 10 16 0.00 0.00
2:44 am 02:44 Mostly Clear with Mist and Fog 46 7.8 45 7.2 96 96 Calm 30.16 1021 1 1 0.00 0.00
2:53 am 02:53 Mostly Clear with Mist and Fog 45 7.2 45 7.2 100 100 Calm 30.13 1020 1 2 0.00 0.00
2:58 am 02:58 Mostly Clear with Fog 45 7.2 44 6.7 97 97 Calm 30.16 1021 1 1 0.00 0.00
3:07 am 03:07 Mostly Clear with Mist and Fog 45 7.2 45 7.2 100 100 Calm 30.16 1021 1 2 0.00 0.00
3:12 am 03:12 Mostly Cloudy with Mist and Fog 44 6.7 44 6.7 100 100 Calm 30.16 1021 4 6 0.00 0.00
3:22 am 03:22 Partly Cloudy with Mist and Fog 45 7.2 43 6.1 93 93 Calm 30.16 1021 3 4 0.00 0.00
3:33 am 03:33 Mostly Clear 44 6.7 43 6.1 96 96 Calm 30.16 1021 8 13 0.00 0.00
3:53 am 03:53 Clear 45 7.2 44 6.7 97 97 Calm 30.13 1020 8 13 0.00 0.00
4:24 am 04:24 Clear with Mist and Fog 45 7.2 44 6.7 97 97 Calm 30.15 1021 2 2 0.00 0.00
4:29 am 04:29 Clear with Fog 44 6.7 43 6.1 96 96 Calm 30.16 1021 1 1 0.00 0.00
4:36 am 04:36 Mostly Clear with Fog 43 6.1 43 6.1 100 100 Calm 30.16 1021 1 1 0.00 0.00
4:48 am 04:48 Mostly Clear with Mist and Fog 43 6 43 6 100 100 Calm 30.16 1021 1 2 0.00 0.00
4:53 am 04:53 Mostly Clear with Mist and Fog 44 6.7 43 6.1 96 96 Calm 30.14 1021 3 4 0.00 0.00
5:00 am 05:00 Clear 43 6.1 42 5.6 97 97 ENE 3 6 30.16 1021 10 16 0.00 0.00
5:53 am 05:53 Clear 43 6.1 42 5.6 97 97 Calm 30.15 1021 10 16 0.00 0.00
6:53 am 06:53 Clear 44 6.7 42 5.6 93 93 Calm 30.15 1021 10 16 0.00 0.00
7:53 am 07:53 Sunny 44 6.7 42 5.6 93 93 Calm 30.16 1022 10 16 0.00 0.00
8:53 am 08:53 Sunny 51 10.6 48 8.9 89 89 NE 3 6 30.17 1022 10 16 0.00 0.00
9:53 am 09:53 Sunny 60 15.6 42 5.6 51 51 VRB 5 7 30.16 1022 10 16 0.00 0.00
10:53 am 10:53 Sunny 61 16.1 40 4.4 46 46 ESE 12 19 30.15 1021 10 16 0.00 0.00
11:53 am 11:53 Sunny 63 17.2 42 5.6 46 46 ESE 9 15 30.13 1020 10 16 0.00 0.00
12:53 pm 12:53 Sunny 66 18.9 43 6.1 43 43 E 10 17 30.08 1019 10 16 0.00 0.00
1:53 pm 13:53 Mostly Cloudy 65 18.3 44 6.7 47 47 ESE 9 15 30.08 1019 10 16 0.00 0.00
2:53 pm 14:53 Cloudy 66 18.9 46 7.8 48 48 SE 8 13 30.06 1018 10 16 0.00 0.00
3:08 pm 15:08 Cloudy 65 18.3 46 7.8 50 50 ESE 8 13 30.03 1017 10 16 0.00 0.00
3:53 pm 15:53 Cloudy 65 18.3 47 8.3 52 52 SSE 7 11 30.06 1018 10 16 0.00 0.00
4:53 pm 16:53 Cloudy 64 17.8 47 8.3 54 54 VRB 5 7 30.05 1018 10 16 0.00 0.00
5:53 pm 17:53 Cloudy 63 17.2 47 8.3 56 56 SE 9 15 30.04 1017 10 16 0.00 0.00
6:53 pm 18:53 Cloudy 62 16.7 48 8.9 60 60 SE 8 13 30.04 1017 10 16 0.00 0.00
7:53 pm 19:53 Cloudy 60 15.6 48 8.9 64 64 ESE 5 7 30.04 1017 10 16 0.00 0.00
8:53 pm 20:53 Cloudy 59 15 49 9.4 69 69 ESE 8 13 30.02 1017 10 16 0.01 0.13
9:53 pm 21:53 Cloudy with Light Rain 57 13.9 52 11.1 83 83 VRB 5 7 30.02 1017 9 14 0.01 0.25
10:36 pm 22:36 Cloudy with Light Rain 56 13.3 53 11.7 90 90 VRB 3 6 30.01 1016 10 16 0.02 0.51
10:53 pm 22:53 Cloudy 55 12.8 53 11.7 93 93 E 7 11 29.98 1015 10 16 0.03 0.76
11:19 pm 23:19 Cloudy with Light Rain 55 12.8 53 11.7 93 93 ESE 6 9 29.97 1015 8 13 0.01 0.13
11:53 pm 23:53 Cloudy with Light Rain 55 12.8 53 11.7 93 93 E 6 9 29.93 1014 6 10 0.01 0.25

Powered by AerisWeather